Weather Roundup
Issued by NWS Corpus Christi, TX

Home | Current Version | Previous Version | Text Only | Print | Product List | Glossary On
Versions: 1 2 3 4 5 6 7 8 9 10 11 12 13 14 15 16 17 18 19 20 21 22 23 24 25 26 27 28 29 30 31 32 33 34 35 36 37 38 39 40 41 42 43 44 45 46 47 48 49 50
000
ASUS44 KCRP 230010
HRRCRP

SOUTH TEXAS REGIONAL WEATHER ROUNDUP
NATIONAL WEATHER SERVICE CORPUS CHRISTI TX
700 PM CDT FRI AUG 22 2014


TXZ229>244-230100-
...CORPUS CHRISTI AREA OBSERVATIONS...

CITY           SKY/WX    TMP DP  RH WIND       PRES   REMARKS
CORPUS CHRISTI MOSUNNY   89  72  56 SE21      29.97S HX  96
NAS CORPUS CHR MOSUNNY   87  78  74 SE18      29.97F HX 100
ROCKPORT       SUNNY     87  76  69 SE15      29.98F HX  97
KINGSVILLE NAS SUNNY     90  73  57 SE22      29.96S HX  98
ALICE          SUNNY     91  68  46 SE22G29   29.95R HX  95
FALFURRIAS     SUNNY     98  69  39 SE16G22   29.94R HX 103
$$

...VICTORIA AREA OBSERVATIONS...

CITY           SKY/WX    TMP DP  RH WIND       PRES   REMARKS
VICTORIA       SUNNY     93  73  52 S15       29.98F HX 102
BEEVILLE       FAIR      93  60  32 SE16G23   29.96S HX  92
PLEASANTON     SUNNY     98  56  24 SE15      29.93S HX  97
SAN ANTONIO    MOSUNNY   98  56  24 SE12      29.96S HX  96
$$

...LAREDO AREA OBSERVATIONS...

CITY           SKY/WX    TMP DP  RH WIND       PRES   REMARKS
LAREDO         SUNNY    101  56  22 SE18G25   29.91F HX 100
COTULLA        SUNNY    101  50  18 SE16      29.90F HX  98
DEL RIO        SUNNY    101  42  13 SE17G28   29.87F HX  96
MCALLEN        MOSUNNY   94  65  38 SE18      29.94R HX  96
HEBBRONVILLE   SUNNY     98  52  21 E14G22    29.93F HX  96
$$

...OTHER TEXAS OBSERVATIONS...

CITY           SKY/WX    TMP DP  RH WIND       PRES   REMARKS
BROWNSVILLE    SUNNY     88  72  58 E15       29.98R HX  94
HOUSTON        MOSUNNY   90  75  61 SE14      29.99S HX 100
COL. STATION   SUNNY     95  66  38 SE10      29.96F HX  98
AUSTIN         MOSUNNY   98  62  30 SE13      29.94F HX  99
WACO           SUNNY     98  59  27 SE12      29.95S HX  98
FORT WORTH     SUNNY     97  58  27 S13       29.93F HX  96
WICHITA FALLS  SUNNY    101  48  16 S16       29.88F HX  97
LUBBOCK        MOSUNNY   93  53  25 S16       29.97F HX  90
EL PASO        PTSUNNY   76  60  57 VRB6      30.06F
$$

...MARINE OBSERVATIONS...

STATION/POSITION TIME  SKY/WX   TEMP    WIND        PRES    VSBY  WAVE   SWELL
                                AIR SEA DIR/SP/G                  HT/PER HT/PER
                 (UTC)          (F)     (DEG/KT/KT) (MB)    (MI)  (FT/S) (FT/S)
PORT ARANSAS     0000            83 86  120/  9/ 10 1016.4F
BUOY 90 E PORT A 0000            85 86  110/  8/ 10 1016.6F         2/ 6   2/ 6
BUOY 45 SE BAFFI 0000            85 85  120/ 12/ 14 1014.9F         3/ 6   2/ 6
BUOY 200 E PT IS 0000            86 87   90/ 10/ 14 1016.2F         2/ 5   2/ 5
BUOY 15 E GALVES NOT AVBL
$$


USA.gov is the U.S. government's official web portal to all federal, state and local government web resources and services.